Regional Weather Roundup
Issued by NWS Sioux Falls, SD

Home | Current Version | Previous Version | Text Only | Print | Product List | Glossary Off
Versions: 1 2 3 4 5 6 7 8 9 10 11 12 13 14 15 16 17 18 19 20 21 22 23 24 25 26 27 28 29 30 31 32 33 34 35 36 37 38 39 40 41 42 43 44 45 46 47 48 49 50

000
ASUS43 KFSD 251310
RWRFSD

WEATHER ROUNDUP FOR SE SOUTH DAKOTA/SW MINNESOTA/NW IOWA
NATIONAL WEATHER SERVICE SIOUX FALLS SD
800 AM CDT SAT APR 25 2015

NOTE: "FAIR" INDICATES FEW OR NO CLOUDS BELOW 12,000 FEET WITH NO
SIGNIFICANT WEATHER AND OR OBSTRUCTIONS TO VISIBILITY.


SDZ038>040-050-052>070-251400-
SOUTHEAST SOUTH DAKOTA

CITY           SKY/WX    TMP DP  RH WIND       PRES   REMARKS
BROOKINGS      CLOUDY    43  39  87 E15       29.73R
CHAMBERLAIN    CLOUDY    49  47  90 E8        29.68R
HURON          CLOUDY    47  44  90 NE12      29.71R FOG
MADISON        CLOUDY    41  41 100 E16G22    29.70R
MITCHELL       CLOUDY    48  46  93 E8        29.70R FOG
SIOUX FALLS    CLOUDY    45  41  86 E16       29.69R
WINNER         LGT RAIN  52  49  89 SE3       29.66R VSB 1/4
YANKTON        CLOUDY    46  41  81 E12       29.66R
$$

MNZ071-072-080-081-089-090-097-098-251400-
SOUTHWEST MINNESOTA

CITY           SKY/WX    TMP DP  RH WIND       PRES   REMARKS
FAIRMONT       CLOUDY    43  12  28 E15       29.74R
JACKSON        CLOUDY    43  36  75 E15G21    29.74R HAZE
LUVERNE        CLOUDY    45  39  81 E18G24    29.71R HAZE
MARSHALL       CLOUDY    43  36  75 E15       29.75R
MONTEVIDEO     CLOUDY    43  43 100 SE17      29.79R FOG
REDWOOD FALLS  CLOUDY    44  38  79 E14G24    29.77R
TRACY          CLOUDY    44  39  85 E15       29.76R
WORTHINGTON    CLOUDY    43  36  75 E17       29.73R
$$

IAZ001>003-012>014-020>022-031-032-NEZ013-014-SDZ071-251400-
NORTHWEST IOWA

CITY           SKY/WX    TMP DP  RH WIND       PRES   REMARKS
CHEROKEE       CLOUDY    43  42  96 E10G20    29.67R FOG
DENISON        LGT RAIN  45  45 100 NE14G26   29.58R
ESTHERVILLE    CLOUDY    41  38  89 E16       29.73R FOG
LE MARS        CLOUDY    46  43  87 NE12G21   29.67R
ORANGE CITY    CLOUDY    43  39  87 E15G22    29.67R FOG
SHELDON        CLOUDY    43  41  93 E21G26    29.68R
SIOUX CITY     LGT RAIN  47  42  83 E17G23    29.63R
SPENCER        CLOUDY    44  39  82 E17       29.71R HAZE
STORM LAKE     MIX PCPN  41  41 100 E17G25    29.67R VSB 1/2
$$

ABBREVIATIONS USED IN REMARKS
   TC - TEMPERATURE IN CELSIUS
  WCI - WIND CHILL INDEX
   HX - HEAT INDEX
  VSB - VISIBILITY




USA.gov is the U.S. government's official web portal to all federal, state and local government web resources and services.